Location: Champseau
(45.8333°N, 1.7667°E)
Time: 15:54:26
(UTC+00:00)

X-37B - Visible Passes

Search period start: 26 September 2021 00:00
Search period end: 06 October 2021 00:00
Orbit: 381 x 393 km, 45.0° (Epoch: 29 August)

Date Brightness Start Highest point End Pass type
(mag) Time Alt. Az. Time Alt. Az. Time Alt. Az.
26 Sep 0.7 04:17:04 42° SW 04:17:54 64° SSE 04:21:02 10° E visible
27 Sep 3.0 03:21:20 21° E 03:21:20 21° E 03:22:38 10° E visible
27 Sep 0.6 04:53:37 15° W 04:56:05 79° S 04:59:16 10° E visible
28 Sep 0.6 03:57:54 72° SE 03:57:54 72° SE 04:00:53 10° E visible
29 Sep 3.9 03:02:12 12° E 03:02:12 12° E 03:02:30 10° E visible
29 Sep 0.5 04:34:29 29° W 04:35:56 72° S 04:39:05 10° ESE visible
30 Sep 2.2 03:38:49 33° E 03:38:49 33° E 03:40:44 10° E visible
30 Sep 1.2 05:11:07 10° W 05:14:04 41° SSW 05:17:05 10° SE visible
01 Oct 0.6 04:15:30 55° SW 04:15:45 57° SSW 04:18:51 10° ESE visible
02 Oct 3.5 03:19:58 15° ESE 03:19:58 15° ESE 03:20:33 10° ESE visible
02 Oct 1.8 04:52:15 18° WSW 04:53:48 28° SSW 04:56:33 10° SE visible
03 Oct 2.2 03:56:49 26° SSE 03:56:49 26° SSE 03:58:32 10° SE visible
04 Oct 2.4 04:33:47 18° SSW 04:33:47 18° SSW 04:35:42 10° SSE visible
